Regional Weather Roundup
Issued by NWS Mobile, AL

Home | Current Version | Previous Version | Text Only | Print | Product List | Glossary On
Versions: 1 2 3 4 5 6 7 8 9 10 11 12 13 14 15 16 17 18 19 20 21 22 23 24 25 26 27 28 29 30 31 32 33 34 35 36 37 38 39 40 41 42 43 44 45 46 47 48 49 50
000
ASUS44 KMOB 290012
RWRMOB
REGIONAL WEATHER ROUNDUP
NATIONAL WEATHER SERVICE MOBILE AL
700 PM CDT FRI APR 28 2017

NOTE: "FAIR" INDICATES FEW OR NO CLOUDS BELOW 12,000 FEET WITH NO
      SIGNIFICANT WEATHER AND/OR OBSTRUCTIONS TO VISIBILITY.

  * THESE STATIONS ARE PART OF THE UNIVERSITY OF SOUTH ALABAMA
    MESONET AND ARE NOT UNDER NWS OR FAA QUALITY CONTROL.

ALZ061>064-290100-
COASTAL ALABAMA

CITY           SKY/WX    TMP DP  RH WIND       PRES   REMARKS
MOBILE REG APT MOCLDY    79  73  82 SE16      29.97R
6HR MIN TEMP:  79; 6HR MAX TEMP:  85;

BROOKLEY FIELD MOCLDY    80  77  90 SE8       29.97S FOG
6HR MIN TEMP:  80; 6HR MAX TEMP:  82;

USA CAMPUS*      N/A     79  73  83 SE3       29.97R
DOG RIVER*       N/A     77  75  94 SE12      30.70S


CITY           SKY/WX    TMP DP  RH WIND       PRES   REMARKS
GULF SHORES    CLOUDY    76  76 100 SE14G23   29.98R

$$

ALZ051>060-290100-
INTERIOR SOUTHWEST AND SOUTH CENTRAL ALABAMA

CITY           SKY/WX    TMP DP  RH WIND       PRES   REMARKS
GREENVILLE     PTCLDY    82  68  62 S7        29.98S
6HR MIN TEMP:  82; 6HR MAX TEMP:  88;

EVERGREEN      PTCLDY    82  71  69 S9        29.98S
6HR MIN TEMP:  81; 6HR MAX TEMP:  88;

ATMORE*          N/A     79  73  83 SE13      29.99R
ANDALUSIA/OPP  CLOUDY    84  70  62 S5        30.00R
6HR MIN TEMP:  84; 6HR MAX TEMP:  90;

ANDALUSIA*       N/A     81  70  69 S7        30.01R
FLORALA APT    LGT RAIN  81  69  67 S8        30.03R
6HR MIN TEMP:  81; 6HR MAX TEMP:  88; 6HR PCP: TRACE;

FLORALA*         N/A     81  72  74 E3        30.71S

$$

FLZ001>006-290100-
WESTERN FLORIDA PANHANDLE

CITY           SKY/WX    TMP DP  RH WIND       PRES   REMARKS
PENSACOLA      CLOUDY    78  73  84 SE17      29.99S
6HR MIN TEMP:  78; 6HR MAX TEMP:  83;

NAS PENSACOLA  CLOUDY    77  73  87 SE16      29.98S
6HR MIN TEMP:  77; 6HR MAX TEMP:  84;

MILTON         CLOUDY    77  73  87 S16       30.00R
6HR MIN TEMP:  77; 6HR MAX TEMP:  85;

WHTNG S FIELD  CLOUDY    80  74  81 S16       30.00S
6HR MIN TEMP:  80; 6HR MAX TEMP:  87;



CITY           SKY/WX    TMP DP  RH WIND       PRES   REMARKS
JAY*             N/A     79  70  73 S16       29.99R
DUKE FIELD     MOCLDY    77  71  83 S10       30.00S
CRESTVIEW      CLOUDY    78  71  79 S8        30.02S
6HR MIN TEMP:  78; 6HR MAX TEMP:  87;

VALPARAISO     CLOUDY    76  72  87 SE15      30.01S
6HR MIN TEMP:  83; 6HR MAX TEMP:  83;

DESTIN         CLOUDY    78  77  96 SE13G22   30.01S
6HR MIN TEMP:  78; 6HR MAX TEMP:  83;


$$

MSZ076-079-290100-
INTERIOR SOUTHEAST MISSISSIPPI

CITY           SKY/WX    TMP DP  RH WIND       PRES   REMARKS
LEAKESVILLE*   NOT AVBL
AGRICOLA*        N/A     79  73  83 CALM      29.94S

$$

MARINE OBSERVATIONS

STATION/POSITION TIME  TEMP    WIND        PRES    WAVE
                       AIR SEA DIR/SP/G            HT/PER
                 (UTC) (F)     (DEG/KT/KT) (MB)    (FT/S)
PETIT BOIS ISLND 2348   76     120/ 13/ 16 1014.8R
GRAND BAY        2245   78     130/ 15     1015.0S
KATRINA CUT      2330   77     130/ 17     1014.2S
CEDAR POINT      2330   77     140/ 14     1014.2F
E DAUPHIN ISLAND 2300   76     120/ 16/ 18 1014.0S
MIDDLE BAY LIGHT 2330   77     130/ 21     1013.5F
USCG MOBILE BAY  2348   79 77  150/  3/  6 1015.1S
STATE DOCKS      2348                      1014.6R
MEAHER PARK      2330   80     130/ 11     1013.9F
FORT MORGAN      2348   77     130/ 19/ 21   N/A
12 S ORANGE BCH  2250   76 75  110/ 14/ 16 1014.4S   4/ 7
PENSACOLA BAY    2348          150/  3/  9 1015.7F
64 S DAUPHIN ISL 2350   77 76  110/ 17/ 21 1013.4S   5/ 6
67 S FORT MORGAN 2330   76                 1014.6S

$$

SELECTED LOCATIONS ACROSS THE REGION

CITY           SKY/WX    TMP DP  RH WIND       PRES   REMARKS
NEW ORLEANS    MOCLDY    81  74  79 SE16      29.87S
GULFPORT       CLOUDY    79  76  90 SE20      29.92S FOG
PASCAGOULA AP  CLOUDY    78  73  84 SE9       29.94S
PASCAGOULA*    NOT AVBL
HATTIESBURG    CLOUDY    81  72  74 SE12      29.92R
LAUREL         CLOUDY    81  70  69 S13       29.92R
MERIDIAN       PTCLDY    83  70  64 S15       29.90R
JACKSON        MOCLDY    84  70  62 S16G23    29.84R
MONTGOMERY     CLOUDY    84  67  56 S7        29.98S
TROY           CLEAR     81  69  67 S7        30.01R
ASHFORD*         N/A     81  70  69 S7        30.01R
DOTHAN         CLOUDY    84  69  60 SW9       30.05R
PANAMA CITY    CLOUDY    77  73  87 S13       30.02R

$$




USA.gov is the U.S. government's official web portal to all federal, state and local government web resources and services.